SCP
0 0 0 0 0 0 0 0 0 1 1 1 1 2 2 2 2 2 2 2 2 2 3 3 3 3 2 2 2 2 3 4 5 5 5 5 4 3 2 1 1 2 2 2
1 1 0 1 1 1 1 1 1 1 1 1 1 2 2 2 2 2 2 2 2 2 3 3 3 3 2 2 3 3 3 3 4 4 4 4 3 2 1 1 1 1 2 2
1 1 1 1 1 1 1 1 1 1 1 2 2 2 2 2 2 2 2 2 1 2 2 3 3 2 2 2 3 3 3 3 3 3 3 3 2 2 1 1 1 1 1 1
0 0 1 1 1 1 1 1 1 1 2 2 2 2 2 2 2 3 2 2 1 1 2 2 2 2 2 2 3 3 3 3 3 3 3 2 2 2 1 1 1 1 1 1
0 0 0 1 1 1 1 1 2 2 2 2 2 2 2 2 2 3 3 2 1 2 2 2 2 2 2 2 2 3 3 4 4 3 3 3 2 2 2 2 1 1 1 1
0 0 1 1 1 1 1 1 2 2 2 2 2 2 2 2 2 2 2 2 2 2 2 2 1 1 1 2 2 2 3 3 4 4 4 4 3 3 3 3 2 2 1 1
0 0 1 1 1 1 1 1 2 2 2 2 2 2 2 2 2 2 2 2 2 2 2 2 1 1 1 1 1 2 2 2 3 4 5 4 4 4 4 4 3 3 2 2
0 0 1 1 1 1 1 1 2 1 2 2 2 2 2 2 2 2 2 2 2 2 2 2 1 1 1 1 1 2 2 2 2 3 4 4 5 5 5 5 4 4 3 3
1 1 1 1 1 1 1 1 2 1 1 2 2 2 2 2 2 2 2 2 2 2 2 2 2 2 2 2 2 2 2 1 2 2 3 3 4 4 4 4 4 4 3 3
1 1 1 1 1 1 1 1 1 1 2 2 2 1 1 2 2 2 2 2 2 2 2 2 2 2 2 2 2 2 2 2 2 2 2 2 3 3 3 3 3 3 2 2
1 1 1 1 1 2 2 1 1 2 1 1 1 1 1 1 2 2 2 2 2 2 3 2 2 3 3 2 2 2 3 3 2 2 2 2 2 2 2 2 2 2 2 2
0 0 1 1 1 1 1 1 1 1 1 1 1 1 1 1 1 2 2 2 2 3 3 3 3 3 2 2 2 2 2 2 2 2 2 2 1 1 1 1 1 1 1 1
0 0 0 1 1 1 0 0 1 1 0 0 0 0 1 1 1 2 2 2 2 3 3 3 3 3 3 2 2 2 2 2 2 1 1 1 1 1 1 1 1 0 0 0
0 0 0 0 0 0 0 0 0 0 0 0 0 0 0 1 1 2 2 2 2 2 2 3 3 3 3 3 2 2 2 2 2 1 1 1 1 1 1 1 1 0 0 0
0 0 0 0 0 0 0 0 0 0 0 0 0 0 0 1 1 1 2 1 1 1 2 2 2 2 3 3 2 2 2 2 2 2 2 2 1 1 1 1 1 0 0 0
0 0 0 0 0 0 0 0 0 0 0 0 0 0 0 0 1 1 1 1 1 1 1 2 2 2 2 2 3 2 2 1 1 2 2 2 2 2 1 1 1 0 0 0
0 0 0 0 0 0 0 0 0 0 0 0 0 0 0 0 0 0 1 1 1 1 1 1 1 1 2 2 3 2 2 1 1 1 2 2 2 2 2 2 1 1 0 0
0 0 0 0 0 0 0 0 0 0 0 0 0 0 0 0 0 0 0 0 1 1 1 1 1 1 1 1 2 2 1 1 1 1 2 2 2 2 2 2 1 1 1 0
0 0 0 0 0 0 0 0 0 0 0 0 0 0 0 0 0 0 0 0 0 0 1 1 1 0 0 1 1 1 1 1 1 1 2 2 2 2 2 1 1 1 1 0
0 0 0 0 0 0 0 0 0 0 0 0 0 0 0 0 0 0 0 0 0 0 0 0 0 0 0 0 0 0 1 1 1 2 2 2 2 2 1 1 1 1 0 0
0 0 0 0 0 0 0 0 0 0 0 0 0 0 0 0 0 0 0 0 0 0 0 0 0 0 0 0 0 0 0 1 2 2 2 2 2 2 1 1 1 0 0 0
0 0 0 0 0 0 0 0 0 0 0 0 0 0 0 0 0 0 0 0 0 0 0 0 0 0 0 0 0 0 0 1 2 2 3 3 2 2 1 1 0 0 0 0
0 0 0 0 0 0 0 0 0 0 0 0 0 0 0 0 0 0 0 0 0 0 0 0 0 0 0 0 0 0 0 1 1 2 2 2 2 1 1 0 0 0 0 0
0 0 0 0 0 0 0 0 0 0 0 0 0 0 0 0 0 0 0 0 0 0 0 0 0 0 0 0 0 0 0 1 1 1 1 1 1 0 0 0 0 0 0 0
0 0 0 0 0 0 0 0 0 0 0 0 0 0 0 0 0 0 0 0 0 0 0 0 0 0 0 0 0 0 0 0 0 0 0 0 0 0 0 0 0 0 0 0
0 0 0 0 0 0 0 0 0 0 0 0 0 0 0 0 0 0 0 0 0 0 0 0 0 0 0 0 0 0 0 0 0 0 0 0 0 0 0 0 0 0 0 0
0 0 0 0 0 0 0 0 0 0 0 0 0 0 0 0 0 0 0 0 0 0 0 0 0 0 0 0 0 0 0 0 0 0 0 0 0 0 0 0 0 0 0 0
Wind_Speed
4 4 4 3 3 4 4 7 8 8 8 8 8 6 6 6 6 7 8 8 9 9 9 9 10 10 10 10 10 10 9 10 10 10 9 9 9 9 9 10 11 9 9 8
1 1 2 1 1 2 3 4 5 7 4 4 4 3 3 4 5 6 7 8 9 9 9 10 10 10 10 10 10 10 10 10 9 9 9 10 10 10 10 9 9 8 9 9
1 0 3 1 1 1 1 2 6 7 6 5 4 3 4 4 4 6 6 7 8 9 9 10 10 10 11 10 9 10 10 10 9 10 10 10 11 10 10 10 8 8 9 9
3 3 3 5 1 4 5 3 2 5 6 7 6 4 3 3 4 3 4 5 6 6 7 7 8 8 9 9 10 10 10 10 10 10 10 10 9 10 9 8 8 8 8 9
4 4 2 1 1 2 5 2 2 7 7 6 5 5 4 3 2 3 3 3 4 5 6 6 7 8 9 10 10 10 10 10 11 11 10 10 10 10 8 7 7 7 8 9
4 4 4 4 2 0 6 2 2 5 7 6 4 3 1 2 2 3 1 1 2 2 3 5 6 7 9 10 10 10 11 10 10 11 11 11 10 9 6 7 7 7 7 8
3 2 2 2 3 2 4 4 1 3 5 5 4 4 2 1 3 3 2 2 1 2 2 4 6 8 9 9 10 10 8 8 9 10 10 10 8 7 7 7 7 7 7 6
3 3 4 3 2 3 4 3 4 4 3 5 5 5 4 4 4 4 4 4 3 2 1 2 4 7 8 8 8 8 8 8 8 8 8 8 7 7 7 7 7 6 5 5
3 3 2 1 3 3 5 6 4 4 4 6 6 5 4 4 4 4 4 4 4 3 2 1 2 4 6 6 6 7 8 7 7 7 6 6 7 7 6 6 5 5 5 5
3 2 3 5 5 5 6 7 6 5 6 7 7 6 6 5 5 5 5 4 4 4 3 2 1 2 3 4 6 8 8 7 6 6 6 5 4 4 5 5 5 5 5 4
3 1 4 5 5 7 8 8 8 7 7 7 8 7 7 6 5 5 4 4 4 3 3 2 1 1 2 4 6 7 6 6 6 6 6 6 5 3 3 3 4 6 5 4
2 1 2 1 3 6 8 8 8 8 8 7 8 8 8 6 5 5 5 4 4 4 4 3 2 2 2 3 6 7 6 5 5 5 5 6 6 5 7 5 5 5 5 5
2 2 3 3 5 6 8 8 8 9 8 8 8 8 8 7 6 6 6 6 5 4 4 3 3 3 2 3 5 6 6 6 5 5 5 5 5 6 5 5 9 8 6 6
4 5 5 5 5 6 8 9 9 9 9 8 8 8 8 8 8 8 8 6 6 6 6 6 6 5 3 3 5 6 6 6 6 5 5 5 5 5 5 6 5 4 5 6
5 5 4 4 6 8 8 9 11 10 10 9 8 8 8 9 8 7 7 7 8 9 9 8 8 7 5 4 6 6 6 5 5 5 5 5 5 6 5 6 5 4 4 4
5 6 7 7 7 7 8 9 10 9 8 8 9 8 8 8 8 8 8 8 9 10 9 9 9 7 6 7 8 7 7 9 8 6 5 5 5 5 5 5 5 4 4 3
6 6 6 6 6 7 8 8 8 8 8 8 8 8 8 9 9 9 8 8 8 8 8 9 8 8 8 9 8 7 7 8 11 8 6 6 6 5 5 6 5 5 4 4
6 6 6 6 7 8 8 8 8 8 7 7 8 9 9 9 8 7 7 7 9 11 11 9 9 9 10 10 8 7 7 7 7 8 7 7 7 6 6 6 6 6 5 6
8 7 8 8 8 8 8 7 7 7 6 7 9 8 8 7 7 7 7 9 10 10 8 9 11 11 10 11 10 8 8 9 8 8 7 8 7 6 6 6 6 6 5 5
8 8 9 9 9 8 8 7 8 8 7 7 9 8 8 7 7 8 9 9 6 4 5 7 9 9 9 9 10 7 8 8 8 7 7 7 6 6 6 6 6 5 5 4
8 8 9 9 8 8 7 7 8 8 7 7 9 8 7 6 6 7 8 7 6 6 7 9 7 6 7 8 9 7 8 8 7 7 7 6 6 6 6 5 5 4 4 4
7 7 8 8 8 7 6 6 7 8 8 8 9 8 8 7 7 7 7 5 4 7 6 6 6 8 9 9 7 7 8 8 7 6 6 6 6 5 5 5 4 4 4 4
7 7 7 7 7 7 7 7 7 8 8 8 7 7 6 5 4 5 5 4 4 8 7 6 9 13 12 8 7 8 8 8 7 6 6 5 5 5 5 5 5 5 4 4
7 8 8 8 8 9 9 7 7 7 7 7 6 6 6 5 5 4 3 6 9 10 7 9 13 13 11 7 7 7 7 7 6 6 6 6 6 6 5 5 5 5 5 6
9 9 9 9 8 7 6 7 8 8 8 7 7 7 5 5 4 4 5 6 9 9 7 10 13 13 9 7 7 7 7 7 7 6 6 6 6 6 5 5 5 5 5 4
8 8 7 7 6 5 5 5 6 6 6 7 6 5 5 5 6 6 6 7 9 9 7 6 7 9 7 7 8 7 7 7 8 7 7 6 6 6 5 5 6 5 4 4
8 7 7 7 6 5 5 6 6 6 6 6 6 5 5 6 6 6 7 6 6 6 6 6 6 6 7 7 7 7 6 6 6 6 5 5 5 4 4 5 4 4 4 4
Wind_Direction
177 187 153 162 166 151 152 171 168 194 183 201 202 185 172 163 164 162 168 172 178 186 185 185 186 186 186 188 186 182 181 187 193 193 188 185 183 182 177 176 179 176 174 176
103 83 95 115 199 179 172 169 154 149 180 207 193 148 125 138 156 168 175 184 188 191 188 189 191 190 187 186 185 179 182 188 188 186 184 184 184 181 177 178 176 173 178 180
184 236 64 309 269 158 176 163 154 167 189 156 138 148 160 153 157 180 184 188 193 195 193 192 192 187 186 186 180 181 185 186 182 183 185 184 183 180 179 179 176 177 183 184
131 98 184 243 288 98 93 55 108 127 143 147 146 143 128 137 148 172 181 192 197 193 193 191 188 184 180 177 179 183 187 188 185 183 184 180 178 181 182 177 179 183 187 190
123 141 213 268 1 109 112 44 51 123 131 129 123 76 43 37 103 150 182 198 201 191 189 182 182 181 173 177 180 183 187 188 186 182 181 180 182 185 182 176 180 185 185 189
120 137 199 235 280 77 95 74 6 122 136 139 121 109 259 341 64 65 64 168 188 171 167 176 184 174 172 180 182 189 190 187 184 181 181 184 185 182 176 176 183 182 186 191
128 147 240 263 294 43 122 204 188 114 127 127 134 164 176 46 54 57 41 28 64 124 151 179 182 173 175 180 190 190 180 176 178 180 183 182 178 173 169 173 175 181 185 190
129 140 243 309 62 119 175 155 109 96 106 106 109 106 93 70 50 44 35 33 45 78 146 166 166 171 175 186 187 171 165 166 173 176 180 177 171 172 171 172 176 181 182 184
164 183 245 65 101 114 123 109 95 92 96 104 100 95 82 74 64 46 51 44 36 45 61 109 140 158 169 181 166 160 157 161 162 164 166 162 166 168 163 167 173 179 178 185
77 58 67 79 83 76 88 94 91 88 86 89 91 86 73 73 66 52 42 40 34 40 56 65 101 146 162 156 153 151 156 160 155 151 152 147 151 159 163 170 175 177 177 181
94 87 55 51 73 92 90 88 87 86 82 88 91 84 78 72 62 54 44 34 37 42 46 51 73 83 118 137 142 145 149 150 144 139 138 128 120 118 146 153 179 174 174 169
157 208 127 109 78 94 92 89 103 100 83 78 85 83 77 71 59 55 50 41 40 37 39 40 63 64 78 133 143 145 146 146 144 137 132 131 127 105 70 86 103 127 137 142
104 76 96 92 76 80 86 90 99 100 96 85 76 78 78 73 61 54 50 44 39 36 35 41 60 65 65 124 134 136 141 141 136 136 136 140 140 135 121 76 67 75 94 115
77 80 76 73 82 78 84 93 95 89 84 83 81 77 76 72 62 53 45 39 39 43 41 46 54 46 30 93 117 125 127 129 131 133 134 136 137 134 132 129 112 79 64 79
66 76 101 98 88 78 83 93 93 87 84 78 76 76 75 73 65 53 42 40 45 44 40 43 47 35 28 65 94 105 110 113 117 116 118 119 119 118 117 122 118 111 98 73
87 83 86 89 92 94 91 92 95 94 91 84 79 75 76 78 72 60 49 47 51 46 37 41 42 34 44 66 79 83 85 91 102 107 108 108 109 114 115 116 115 112 107 106
108 105 103 99 99 102 99 100 101 101 97 92 89 85 82 77 72 63 55 52 56 50 42 43 39 39 52 63 73 80 84 85 87 90 92 98 99 101 104 105 104 99 89 80
95 107 117 122 116 106 100 100 101 101 102 102 96 89 84 80 76 68 59 57 59 52 41 39 43 51 55 59 70 77 82 82 83 87 87 86 89 91 93 94 96 96 89 84
83 89 94 100 108 107 104 102 99 98 95 100 98 91 85 79 76 72 66 62 58 52 32 35 48 56 57 58 66 73 78 81 81 80 83 87 86 84 89 92 91 90 90 90
77 80 89 91 93 99 102 101 99 96 93 97 94 89 82 74 69 69 70 64 51 43 37 48 54 55 55 58 65 70 74 78 82 83 82 83 85 84 85 89 91 91 91 92
89 90 94 95 91 88 92 96 98 97 92 89 90 89 86 76 69 69 71 63 32 37 49 52 54 53 57 63 64 67 71 75 77 80 83 84 83 80 78 80 84 89 93 91
91 94 97 96 93 87 82 88 96 98 97 94 91 90 87 78 71 67 63 67 53 55 56 50 51 56 63 66 66 68 70 73 74 75 77 79 82 82 78 77 80 81 82 82
90 92 93 91 92 93 87 84 88 95 98 100 99 98 94 87 80 83 68 39 57 66 64 59 60 63 66 64 64 66 68 70 73 74 74 75 77 79 80 77 75 74 75 76
88 86 88 88 87 86 85 85 87 89 91 91 91 95 96 88 71 67 84 73 69 71 67 61 61 63 66 66 66 66 66 68 70 70 68 68 68 71 72 73 70 66 66 67
90 90 88 86 83 84 85 84 82 82 84 80 75 71 71 81 88 77 73 75 76 74 66 59 61 62 61 65 67 67 66 67 71 72 70 71 71 71 69 67 68 68 67 65
87 87 84 82 82 82 81 82 81 79 81 78 69 62 63 65 69 68 69 71 71 68 65 63 64 65 66 67 67 67 66 66 66 66 68 70 69 67 65 66 67 67 66 62
80 78 76 72 67 67 74 77 79 76 76 84 81 70 69 66 65 69 70 68 66 66 65 64 67 68 70 71 69 67 66 66 65 63 62 63 63 63 63 66 65 63 61 56